Location: Vallejo Observatory
(38.1221°N, 122.2109°W)
Time: 17:12:01
(UTC-07:00)

Daily predictions for brighter satellites

Satellite Brightness Start Highest point End
(mag) Time Altitude Azimuth Time Altitude Azimuth Time Altitude Azimuth
CORIOLIS 4.2 18:47:18 10° SSE 18:52:41 90° ENE 18:58:07 10° NNW
Meteor 2-15 4.4 18:49:41 10° N 18:55:48 76° E 19:01:54 10° SSE
FENGYUN 3A 4.5 18:51:30 10° SE 18:56:05 29° ENE 19:00:42 10° N
Tiangong 1 0.7 18:54:27 10° WNW 18:57:10 84° SSW 18:59:51 10° ESE
CZ-2C R/B 4.1 18:54:35 10° N 18:59:06 69° WNW 19:03:31 10° SSW
MOS 1 4.4 18:55:14 10° SSE 19:00:46 59° ENE 19:06:21 10° N
Cosmos 1400 Rocket 3.5 18:57:40 10° NNE 19:01:20 32° ENE 19:04:55 10° SE
ASTRO E2 4.3 18:58:24 10° SW 19:01:39 24° SSE 19:04:55 10° ESE
Cosmos-2242 3.2 18:57:26 10° S 19:01:42 79° W 19:05:58 10° N
Meteor 2-14 Rocket 4.4 18:58:03 10° S 19:04:08 80° E 19:10:14 10° N
ERS-2 2.8 19:02:31 10° S 19:06:10 61° WSW 19:09:51 10° NNW
Meteor 2-16 Rocket 4.4 19:00:37 10° S 19:06:39 71° E 19:12:45 10° NNE
Meteor 1-28 Rocket 4.0 19:04:41 10° N 19:08:26 56° WNW 19:12:07 10° SSW
SKYMED 2 3.5 19:05:47 10° NNE 19:10:08 72° ESE 19:14:27 10° S
Cosmos 1624 Rocket 3.9 19:05:27 10° NNW 19:10:40 74° ENE 19:15:54 10° SSE
Cosmos 1908 4.3 19:09:34 10° SE 19:12:44 24° E 19:15:53 10° NE
Cosmos 1371 Rocket 4.1 19:07:38 10° NNW 19:13:02 87° WSW 19:18:22 10° SSE
Thor Agena Rocket 4.2 19:09:30 10° NE 19:13:59 30° E 19:18:24 10° SSE
Cosmos 1743 Rocket 3.6 19:12:23 10° N 19:16:42 57° E 19:21:01 10° SSE
Cosmos 2151 3.2 19:15:00 10° N 19:19:07 45° E 19:23:11 10° SSE
SL-16 R/B 2.3 19:14:04 10° NNW 19:19:46 84° WSW 19:25:26 10° SSE
Iridium 4 Rocket 4.4 19:15:13 10° SE 19:19:52 31° E 19:24:48 10° NNE
H-2A R/B 4.1 19:18:13 11° ESE 19:21:00 21° ENE 19:23:56 10° NNE
FALCON 9 R/B 3.1 19:19:53 10° SW 19:21:20 14° S 19:23:13 10° SSE
Cosmos 1842 Rocket 3.5 19:17:46 10° S 19:22:13 67° E 19:26:39 10° NNE
Delta 2 Rocket 3.8 19:19:12 10° SW 19:22:36 37° SSE 19:24:46 18° ESE
Cosmos 44 4.4 19:22:51 10° SSE 19:25:46 18° ESE 19:26:23 17° E
FREGAT/IRIS 3.8 19:28:22 22° ENE 19:28:29 22° ENE 19:30:53 10° NNE
ISS -2.4 19:25:58 10° WNW 19:29:02 37° SW 19:32:06 10° SSE
Centaur D AC-28 4.4 19:28:24 10° SE 19:29:41 11° SE 19:30:48 10° ESE
APEX 4.4 19:29:23 10° SSE 19:31:23 18° ESE 19:31:23 18° ESE
Cosmos 2221 3.0 19:29:31 10° SSE 19:33:28 36° E 19:37:27 10° NNE
Cosmos 44 Rocket 4.3 19:32:49 10° SSE 19:36:34 24° ESE 19:37:31 22° E
Cosmos 1500 Rocket 3.4 19:34:43 10° N 19:39:05 78° E 19:43:24 10° S
Cosmos 1315 Rocket 3.0 19:38:28 10° N 19:42:25 49° ENE 19:46:24 10° SSE
Cosmos 921 Rocket 3.3 19:41:44 10° N 19:46:02 45° ENE 19:48:43 20° SE
SPOT 3 Rocket 4.0 19:41:07 10° S 19:46:15 64° WSW 19:51:26 10° NNW
Cosmos 158 Rocket 4.1 19:42:18 10° S 19:47:03 46° ESE 19:51:57 10° NNE
Cosmos 2058 3.2 19:48:56 10° NNW 19:53:07 71° W 19:57:14 10° S
Cosmos 1269 Rocket 4.4 19:49:22 10° SSE 19:54:14 39° E 19:57:37 18° NE
Cosmos 1626 3.5 19:53:06 10° NNW 19:56:38 41° W 20:00:08 10° SSW
COSMOS 2428 3.3 19:51:58 10° N 19:57:09 35° ENE 19:58:23 32° E
RESURS DK-1 2.3 19:53:22 10° NNW 19:57:29 63° ENE 19:59:03 35° SE
COSMO-SKYMED 1 4.5 19:54:13 10° N 19:58:05 32° WNW 20:01:54 10° SW
Cosmos 2333 Rocket 3.6 19:56:18 10° N 20:00:04 20° NE 20:00:04 20° NE
Cosmos 2098 Rocket 3.1 19:57:15 10° SSE 20:01:06 53° E 20:06:02 10° NNE
Cosmos 2360 Rocket 2.1 19:58:15 10° NNW 20:03:56 90° ENE 20:09:36 10° SSE
FengYun 1-2 T 4.1 19:59:25 10° SSE 20:04:54 73° ENE 20:10:23 10° N
Cosmos 468 4.4 20:00:22 10° SSW 20:05:34 84° ESE 20:10:49 10° NNE
SJ-6B 2.7 20:06:33 55° NE 20:06:33 55° NE 20:09:57 10° N
Cosmos 2219 3.4 20:01:32 10° S 20:07:01 48° ESE 20:09:45 27° NE
Cosmos 2322 Rocket 4.1 20:05:01 10° NW 20:09:51 30° WSW 20:14:40 10° SSW
SL-8 R/B 4.1 20:05:41 10° WSW 20:10:27 61° NNW 20:12:25 34° NE
SL-24 R/B - RUBIN 2 3.5 20:05:51 10° NNW 20:10:40 75° ENE 20:11:48 50° SE
Cosmos 1452 Rocket 3.6 20:10:50 10° NNW 20:16:05 76° WSW 20:21:11 11° S
MOS 1-B Rocket 4.0 20:16:02 44° E 20:16:53 47° ENE 20:22:28 10° N
Cosmos 1805 Rocket 3.5 20:12:51 10° N 20:16:56 62° ENE 20:16:56 62° ENE
BREEZE-M DEB (TANK) 3.9 20:08:27 10° W 20:17:30 38° NNW 20:19:03 29° NNE
Cosmos 1821 Rocket 3.8 20:13:42 10° S 20:19:49 83° E 20:26:04 10° N
Cosmos 1000 Rocket 4.4 20:17:12 10° N 20:23:28 89° W 20:29:38 10° S
ALOS 3.9 20:21:30 10° SSW 20:25:43 33° W 20:29:57 10° NNW
DELTA 2 R/B (1) 3.5 20:20:54 10° W 20:26:32 86° NNE 20:27:28 63° E
USA 267 3.2 20:24:25 25° NE 20:28:31 85° NW 20:35:04 10° SW
Atlas Centaur 2 3.1 20:23:47 10° WSW 20:28:42 38° S 20:29:50 35° SSE
Cosmos 2239 Rocket 4.4 20:22:39 10° S 20:28:48 83° W 20:34:59 10° N
Cosmos 1934 Rocket 3.9 20:22:39 10° S 20:28:58 75° E 20:35:20 10° N
Cosmos 2322 3.9 20:23:59 10° NNW 20:29:41 70° WSW 20:33:24 22° S
Tiangong 1 4.1 20:30:53 10° WSW 20:31:05 10° SW 20:31:05 10° SW
Gbstr 26 Del rocket 4.5 20:30:39 10° NW 20:35:37 37° NNE 20:35:37 37° NNE
CZ-4C R/B 1.9 20:37:58 10° SSW 20:42:53 83° S 20:42:53 83° S
Cosmos 2123 Rocket 3.8 20:43:31 10° N 20:49:47 83° E 20:50:17 76° SSE
Cosmos 2219 Rocket 2.9 20:48:59 10° NNW 20:52:47 42° N 20:52:47 42° N
Resurs 01 Rocket 3.8 21:05:10 19° NNW 21:05:10 19° NNW 21:06:29 10° NNW
USA 234 4.0 21:02:44 38° NNE 21:02:44 38° NNE 21:08:06 10° NNW
Envisat 4.4 21:06:42 31° NNW 21:06:42 31° NNW 21:09:20 10° NNW
Cosmos 2333 4.5 20:59:30 10° NNW 21:04:46 65° W 21:04:46 65° W
Cosmos 2237 Rocket 4.0 21:17:19 10° NNW 21:19:21 22° N 21:19:21 22° N
COSMOS 2428 4.4 21:36:23 10° NW 21:40:27 29° W 21:40:27 29° W
Cosmos 2333 Rocket 4.0 21:39:33 10° NNW 21:42:05 26° NW 21:42:05 26° NW
